Temperature
10 9 8 9 10 11 11 11 11 12 11 11 11 11 11 11 11 11 11 10 10 9 9 9 9 9 9 9 9 9 9 9 9 9 9 9 9 9 9 9 10 9 10 10
9 8 9 10 10 10 11 10 11 10 11 11 10 10 11 11 10 10 10 10 10 9 9 8 8 8 8 8 8 9 9 9 9 9 9 9 9 9 9 9 9 9 9 9
8 9 10 10 9 10 10 9 10 10 10 10 9 9 10 10 10 10 10 10 9 9 8 8 7 7 7 7 8 8 8 8 8 8 8 8 8 8 8 8 8 8 8 9
8 9 9 9 8 9 8 9 9 9 8 7 8 7 9 10 9 9 9 9 9 8 8 7 7 7 6 7 7 7 8 8 8 8 8 8 7 8 8 8 8 8 8 8
7 8 8 8 8 8 8 9 8 8 8 7 7 6 8 9 8 8 8 9 8 8 7 7 7 6 6 6 6 7 7 7 7 7 7 7 7 7 7 7 7 8 8 8
7 8 8 8 8 8 8 8 7 7 6 5 7 6 8 8 8 8 8 8 8 7 7 6 6 6 6 6 6 6 6 6 6 6 6 6 6 6 6 7 7 7 7 7
6 7 7 7 7 7 7 6 5 6 5 6 7 7 7 8 8 8 8 8 7 7 6 6 5 5 5 5 5 5 5 5 5 5 6 6 6 6 6 6 6 6 6 7
6 5 6 6 6 6 6 6 6 6 6 7 6 6 7 8 8 8 8 7 7 6 5 5 5 4 4 4 4 4 4 5 5 5 5 5 5 5 5 6 6 6 6 6
6 5 6 6 6 6 6 6 6 5 5 5 6 7 7 7 6 6 7 6 6 5 5 4 4 4 4 4 4 4 4 4 4 4 4 4 4 5 5 5 5 5 5 5
5 4 5 5 6 5 5 6 5 4 5 6 7 7 7 6 6 6 5 5 5 5 4 4 3 3 3 3 3 3 3 3 3 3 3 3 4 4 4 4 4 4 4 4
5 4 4 4 4 4 5 5 5 4 5 5 5 6 7 6 6 5 5 5 5 4 4 3 2 2 2 2 2 2 2 2 2 2 2 2 3 3 3 3 4 4 4 4
4 3 3 4 4 4 5 5 4 4 4 4 4 5 6 5 5 5 5 4 4 3 3 2 2 2 2 2 2 1 1 1 2 2 2 2 2 2 2 3 3 3 3 3
3 3 3 3 3 3 3 4 4 3 3 3 3 4 5 5 4 4 4 3 3 2 2 2 1 1 1 1 1 1 1 1 1 1 1 1 1 1 2 2 2 2 2 2
3 2 2 3 3 2 2 3 3 2 2 2 3 4 4 4 3 3 3 3 2 2 1 1 1 0 0 0 1 1 1 1 1 1 1 1 1 1 1 1 1 1 2 2
2 1 1 2 3 3 3 2 2 2 2 2 3 3 3 3 3 3 3 2 2 1 1 0 0 -0 -0 0 0 0 0 0 0 0 0 0 0 0 0 0 0 1 1 1
0 1 1 1 2 2 2 2 2 2 2 2 2 2 3 3 3 3 2 2 1 1 0 0 -0 -0 -1 -1 -1 -1 -0 -0 -0 -0 -0 -0 -0 -0 -0 -0 0 0 0 1
-0 -0 0 1 1 1 1 1 1 1 1 2 1 2 2 1 1 2 2 1 1 0 0 -0 -1 -1 -1 -1 -1 -1 -1 -1 -1 -1 -1 -1 -1 -1 -0 -0 -0 -0 -0 0
-1 -0 -0 0 1 1 2 2 2 1 1 1 1 1 1 1 2 2 1 1 0 -0 -0 -1 -1 -2 -2 -2 -2 -2 -2 -1 -1 -1 -1 -1 -1 -1 -1 -1 -1 -1 -1 -1
-1 -1 0 0 0 1 2 1 1 0 -0 1 0 0 1 1 1 1 1 0 -0 -1 -1 -2 -2 -2 -2 -2 -2 -2 -2 -2 -2 -2 -2 -2 -2 -1 -1 -1 -1 -1 -1 -1
-2 -2 -1 -0 0 1 2 1 1 0 -0 0 0 -0 -0 -0 -1 -1 -0 -1 -1 -2 -2 -2 -2 -3 -3 -3 -3 -3 -3 -3 -2 -2 -2 -2 -2 -2 -2 -2 -2 -2 -2 -1
-2 -2 -1 -1 0 1 0 -0 0 -0 -0 -1 -0 -1 -1 -2 -2 -1 -1 -2 -2 -2 -2 -3 -3 -3 -3 -3 -3 -3 -3 -3 -3 -3 -3 -3 -3 -2 -2 -2 -2 -2 -2 -2
-2 -2 -1 -1 -0 0 -1 -1 -1 -1 -1 -1 -1 -1 -1 -2 -2 -2 -2 -2 -3 -3 -3 -3 -3 -3 -3 -3 -3 -3 -3 -3 -3 -3 -3 -3 -3 -3 -3 -3 -3 -3 -2 -2
-1 -1 -1 -1 -0 -1 -1 -1 -1 -1 -1 -1 -2 -2 -2 -2 -3 -3 -3 -3 -3 -3 -4 -4 -4 -4 -4 -4 -4 -4 -4 -4 -4 -3 -3 -3 -3 -3 -3 -3 -3 -3 -3 -3
-2 -2 -2 -2 -1 -1 -1 -1 -1 -1 -2 -2 -2 -2 -2 -3 -3 -3 -4 -4 -4 -4 -4 -4 -4 -4 -4 -4 -4 -4 -4 -4 -4 -4 -4 -4 -4 -4 -4 -4 -4 -4 -4 -4
-1 -3 -2 -3 -2 -2 -1 -1 -2 -2 -2 -2 -2 -2 -3 -3 -3 -4 -4 -4 -4 -4 -4 -4 -4 -4 -4 -4 -4 -4 -4 -4 -4 -4 -4 -5 -4 -4 -4 -4 -4 -4 -4 -4
-2 -3 -3 -2 -2 -2 -2 -2 -2 -2 -3 -3 -3 -3 -3 -3 -4 -4 -4 -4 -4 -4 -4 -5 -5 -5 -5 -5 -4 -5 -4 -5 -5 -5 -5 -5 -5 -5 -5 -5 -5 -5 -5 -5
Wind_Speed
4 4 5 6 7 5 5 6 6 3 2 5 8 9 6 5 4 4 3 3 3 2 1 2 2 2 2 2 2 1 1 0 1 1 1 1 1 1 1 1 1 1 2 2
3 5 5 3 5 6 6 7 5 1 1 3 6 9 6 5 5 4 4 3 2 1 1 1 2 2 2 2 2 2 1 1 0 1 1 1 1 2 2 1 1 2 2 3
5 2 4 5 4 6 6 6 5 3 3 3 5 7 8 6 6 4 3 3 2 2 1 1 2 2 2 2 2 2 2 1 0 0 1 0 0 0 0 1 1 2 2 2
4 3 3 5 4 4 5 3 4 4 3 4 4 5 6 6 6 6 5 3 2 1 1 1 1 1 1 1 1 1 2 2 1 1 2 2 2 2 2 2 2 2 1 1
2 2 4 5 4 4 2 2 3 4 4 5 5 5 6 5 6 7 6 4 3 2 1 1 1 1 2 2 2 1 2 2 1 1 1 2 2 2 2 2 2 2 2 2
2 2 2 1 1 2 1 1 2 3 2 6 8 7 6 5 7 6 6 4 3 2 1 1 2 2 2 2 2 1 2 2 1 1 1 1 2 2 2 3 3 2 1 1
3 3 2 1 1 2 2 1 1 2 4 6 5 6 6 4 2 4 5 4 3 3 2 2 2 2 2 1 1 2 2 2 2 1 1 1 2 2 3 3 3 2 2 2
4 4 5 3 2 3 5 4 3 4 4 2 4 7 4 4 3 3 3 3 3 3 2 2 2 1 2 2 2 2 2 3 2 1 1 1 2 2 2 2 2 3 3 3
2 2 3 3 2 2 4 4 1 2 3 3 5 4 2 3 3 3 2 2 2 2 2 1 1 1 2 2 2 2 2 2 2 2 2 1 2 1 2 2 2 2 2 2
1 1 3 2 3 4 2 1 2 3 3 5 5 5 4 5 5 4 3 2 1 1 1 1 1 2 2 2 2 2 2 2 2 2 2 2 1 1 1 1 1 2 2 2
2 2 2 3 6 6 5 4 4 3 3 3 4 3 1 4 4 4 2 1 1 1 1 1 1 2 2 2 2 2 2 2 2 2 2 2 2 2 2 1 1 1 2 2
1 1 3 4 1 2 3 5 5 4 4 4 3 4 2 5 5 4 3 2 2 2 1 1 1 2 2 2 2 2 2 2 2 2 2 2 2 2 2 2 2 2 2 2
1 2 2 2 1 2 3 5 4 2 2 4 4 5 0 3 3 2 1 1 1 1 2 1 1 2 2 3 3 3 2 2 3 3 2 2 2 2 2 3 2 2 2 3
1 2 5 5 2 3 5 7 7 6 5 6 8 7 5 2 1 1 1 1 1 1 2 2 2 2 2 3 3 3 3 3 3 3 3 3 3 3 3 3 3 3 3 3
1 3 4 6 6 5 6 7 9 10 9 8 8 8 8 4 2 2 1 1 2 2 2 2 2 3 3 3 3 3 3 4 4 3 4 4 3 3 3 3 3 3 3 4
1 2 2 5 5 5 7 9 10 11 10 11 10 10 5 3 2 2 2 2 3 3 3 3 3 4 4 4 4 4 4 4 4 4 4 4 4 3 3 3 4 4 4 4
3 3 1 3 2 4 8 9 10 8 8 8 11 9 3 4 4 4 4 4 4 4 3 3 3 4 4 4 4 5 5 5 4 4 5 4 4 3 4 4 4 4 5 5
4 3 2 2 2 6 5 1 5 7 7 6 6 4 3 4 5 4 3 2 2 3 3 4 4 4 4 4 4 5 5 5 5 5 5 4 4 4 4 4 4 5 4 5
3 4 3 2 4 7 3 2 3 5 6 5 6 5 4 3 4 2 1 1 2 3 4 4 3 4 4 4 4 4 4 4 4 4 5 5 5 5 5 5 5 5 4 5
1 2 3 3 4 5 2 1 2 2 4 2 2 4 3 1 3 3 2 3 4 3 3 3 3 3 4 4 4 4 4 4 5 5 5 5 5 5 5 5 5 4 4 4
3 4 6 6 5 5 1 1 3 2 4 2 2 2 1 2 4 3 3 4 3 3 3 3 2 3 3 4 3 4 5 5 5 5 5 5 4 5 4 4 4 4 3 3
6 5 6 5 6 6 2 3 3 3 1 1 2 2 1 2 3 2 3 3 3 3 3 3 3 3 3 3 3 4 5 5 4 4 4 4 4 4 4 3 3 3 3 3
5 5 3 5 5 1 3 3 2 0 1 2 2 2 1 2 3 3 3 2 3 3 3 3 3 4 4 4 3 4 5 4 4 4 4 4 4 4 4 3 3 3 3 3
3 2 2 3 4 2 2 2 1 1 1 2 2 1 0 1 2 3 3 3 3 3 3 3 3 4 5 5 4 4 5 4 3 3 4 4 4 4 3 3 3 3 3 3
3 4 3 5 4 3 2 2 2 1 1 1 2 1 1 1 1 2 2 3 3 3 3 3 3 4 5 5 5 5 4 3 3 3 4 4 4 4 3 3 3 3 3 3
4 4 4 4 2 3 3 1 1 1 1 1 1 1 1 1 2 2 2 2 3 3 3 3 3 4 5 5 6 5 4 3 3 3 3 3 3 3 3 3 4 4 4 6
Wind_Direction
188 196 205 212 221 257 272 256 255 253 223 241 240 248 231 209 217 221 211 202 190 178 128 106 103 96 92 75 62 69 78 175 154 156 170 177 195 201 212 207 198 222 254 234
186 221 219 235 235 250 264 269 265 267 260 278 267 261 242 212 216 219 212 200 190 165 127 132 116 101 82 73 58 35 37 17 82 166 199 207 195 201 200 197 206 223 239 236
207 208 212 226 231 240 247 258 267 281 312 275 294 275 229 213 204 203 208 198 182 179 166 144 130 111 83 55 39 17 2 345 291 209 150 142 133 115 166 208 217 239 232 224
219 223 231 221 222 227 240 264 281 275 271 254 217 272 235 198 194 201 203 195 182 166 160 148 120 111 98 67 40 14 355 338 282 235 198 198 208 207 220 209 215 235 260 257
212 191 225 228 230 241 243 286 276 262 251 277 232 243 260 186 207 206 197 189 177 159 148 114 112 101 71 56 40 3 340 330 322 300 238 216 230 235 216 202 204 215 234 252
244 277 262 243 245 230 189 287 285 264 232 253 223 220 256 199 209 200 189 176 152 125 94 82 72 75 67 50 27 3 333 321 318 307 276 242 230 229 234 218 211 216 217 225
208 209 206 259 193 190 205 163 200 218 224 239 189 216 244 186 179 171 165 151 135 113 84 70 62 54 44 40 15 353 339 329 327 322 290 258 245 223 231 231 216 217 223 228
202 213 187 205 220 204 213 209 198 224 241 256 206 226 230 163 129 102 115 131 119 101 86 61 53 48 25 11 8 356 338 330 332 317 287 275 267 242 236 239 234 225 221 221
224 202 164 207 249 226 211 219 244 271 279 269 236 221 221 132 124 122 122 118 117 107 85 46 12 10 11 360 347 334 330 329 327 316 304 287 273 261 252 250 247 247 236 230
309 235 190 193 223 236 245 243 179 205 230 256 251 228 211 183 184 167 154 138 104 84 63 35 355 349 6 360 345 349 349 329 321 325 318 310 310 297 286 279 257 257 260 248
273 213 187 192 208 204 201 211 210 225 244 232 260 256 36 154 145 150 150 117 83 52 45 28 359 356 349 358 358 354 348 341 335 328 320 321 310 307 307 290 284 274 271 260
250 217 229 215 219 293 241 213 189 199 234 230 257 267 51 94 84 78 66 60 55 39 23 18 358 353 347 349 353 346 343 338 324 316 320 323 321 312 301 293 289 278 270 264
147 189 217 220 218 226 243 231 217 220 231 226 231 253 155 106 92 77 56 32 19 355 356 1 338 335 336 339 342 336 336 333 326 323 319 318 318 314 302 294 287 279 269 267
197 227 222 233 260 199 234 229 214 206 220 236 233 252 261 236 218 271 289 274 280 306 327 333 326 328 327 327 325 328 333 332 322 318 311 301 292 288 287 289 287 279 273 269
136 233 249 274 284 271 252 235 215 216 223 228 246 252 261 256 255 265 277 295 305 304 304 306 313 318 320 324 323 328 328 324 317 311 302 294 290 288 287 288 284 277 275 275
159 239 276 273 260 258 263 247 228 228 235 245 264 272 268 296 313 293 288 286 279 283 290 300 314 319 322 323 321 322 319 311 309 304 301 299 297 295 288 278 280 280 274 271
180 183 227 264 291 297 262 231 215 223 226 224 241 250 294 313 293 276 274 268 269 273 293 302 308 309 313 314 318 315 310 314 313 305 300 299 298 296 291 285 281 274 271 269
176 180 209 266 291 245 242 209 194 221 240 231 246 270 281 275 279 277 259 250 278 304 305 306 310 309 309 313 314 308 305 305 301 299 298 300 296 292 292 288 281 275 272 271
194 187 211 221 252 264 253 212 178 204 254 236 240 262 285 314 309 291 106 75 321 311 308 304 302 301 302 305 306 304 296 298 299 297 296 300 297 291 288 284 281 278 274 272
177 185 214 223 240 247 229 116 95 117 269 317 255 260 267 292 265 262 11 1 340 331 320 310 306 306 306 309 313 308 301 300 294 292 295 297 295 289 284 283 281 279 279 276
171 201 218 229 242 260 241 149 114 168 251 338 345 308 275 237 241 270 329 338 343 334 328 326 320 312 306 312 315 305 301 294 293 295 294 295 296 294 289 287 284 285 284 285
186 191 201 202 224 244 157 139 186 222 317 334 330 332 309 300 318 334 334 334 338 336 335 334 330 319 313 313 310 303 296 296 304 303 299 299 301 300 301 295 290 284 281 282
203 205 204 205 220 204 157 173 190 157 284 294 322 325 336 314 312 322 326 326 330 333 330 332 331 323 320 315 308 299 299 301 304 311 309 301 300 303 304 294 288 286 281 280
212 202 232 261 255 237 216 219 223 217 265 298 308 306 339 287 300 316 319 323 329 329 325 325 325 322 318 315 309 302 305 305 301 304 306 303 302 302 305 300 288 281 280 277
216 179 215 247 269 298 261 237 242 241 283 311 331 331 231 243 295 298 309 314 318 319 320 321 315 312 315 318 317 315 313 311 303 298 301 305 303 300 300 299 288 277 268 268
214 203 213 236 235 230 263 278 263 217 237 258 280 316 320 272 270 290 299 307 312 313 317 317 314 316 318 322 321 319 318 313 299 295 299 300 299 299 296 297 303 297 283 290
Height
1475 1478 1479 1478 1478 1477 1476 1476 1476 1475 1477 1478 1478 1477 1477 1477 1479 1479 1480 1481 1482 1483 1484 1484 1484 1485 1485 1486 1486 1487 1488 1488 1489 1489 1490 1492 1493 1495 1496 1497 1498 1500 1501 1502
1475 1476 1475 1475 1476 1476 1476 1477 1475 1476 1477 1478 1477 1475 1473 1474 1475 1477 1478 1479 1480 1481 1481 1482 1482 1482 1483 1483 1483 1484 1484 1485 1486 1486 1487 1489 1490 1491 1492 1494 1495 1496 1497 1498
1473 1474 1473 1474 1476 1476 1477 1479 1477 1478 1478 1478 1480 1476 1471 1470 1471 1474 1476 1477 1478 1479 1479 1480 1480 1480 1480 1480 1481 1481 1481 1482 1483 1483 1484 1485 1486 1487 1488 1489 1491 1492 1493 1494
1472 1473 1473 1474 1476 1476 1478 1477 1477 1479 1484 1484 1482 1485 1469 1467 1469 1471 1473 1474 1475 1476 1477 1478 1478 1478 1478 1478 1478 1478 1479 1479 1479 1480 1481 1482 1483 1483 1484 1486 1487 1488 1489 1490
1472 1473 1474 1475 1476 1476 1478 1477 1478 1480 1482 1486 1482 1486 1471 1464 1468 1469 1470 1472 1473 1474 1475 1476 1476 1476 1476 1475 1475 1476 1476 1476 1476 1477 1478 1479 1479 1480 1482 1482 1483 1484 1485 1486
1473 1473 1474 1474 1476 1476 1478 1479 1480 1480 1483 1489 1479 1482 1470 1466 1464 1464 1466 1468 1470 1472 1473 1474 1474 1474 1473 1473 1473 1473 1473 1473 1473 1474 1474 1475 1476 1477 1478 1478 1479 1480 1481 1482
1474 1474 1475 1475 1477 1478 1479 1485 1488 1487 1487 1480 1471 1475 1468 1461 1459 1461 1463 1466 1468 1470 1471 1471 1472 1471 1471 1471 1471 1471 1471 1470 1471 1471 1471 1472 1473 1473 1474 1475 1475 1476 1477 1477
1474 1476 1474 1474 1476 1478 1479 1479 1485 1486 1481 1473 1473 1472 1462 1458 1458 1460 1462 1464 1467 1468 1469 1470 1470 1470 1469 1469 1469 1468 1468 1468 1468 1468 1468 1469 1469 1470 1470 1471 1472 1472 1473 1474
1471 1473 1473 1473 1474 1476 1477 1478 1477 1482 1482 1481 1468 1461 1459 1457 1459 1460 1462 1464 1466 1467 1468 1469 1469 1468 1468 1467 1466 1466 1465 1465 1465 1465 1465 1465 1466 1466 1466 1467 1467 1468 1469 1470
1471 1476 1473 1473 1474 1475 1476 1476 1481 1484 1482 1476 1463 1460 1460 1459 1460 1461 1462 1463 1465 1466 1467 1467 1467 1467 1466 1465 1464 1463 1463 1462 1462 1462 1462 1462 1462 1463 1463 1463 1463 1464 1465 1466
1472 1476 1476 1475 1475 1474 1476 1478 1478 1479 1478 1477 1471 1464 1454 1455 1456 1459 1461 1463 1464 1465 1465 1465 1465 1465 1464 1463 1462 1461 1460 1460 1459 1459 1459 1458 1459 1459 1459 1459 1459 1459 1461 1461
1472 1474 1476 1473 1472 1472 1472 1472 1476 1482 1480 1476 1477 1470 1456 1456 1457 1459 1461 1463 1463 1464 1464 1464 1463 1463 1462 1461 1460 1459 1458 1457 1457 1456 1456 1455 1455 1456 1455 1455 1455 1456 1456 1457
1473 1476 1477 1474 1477 1476 1474 1472 1474 1477 1478 1478 1478 1469 1458 1457 1458 1460 1461 1462 1462 1462 1462 1462 1462 1461 1460 1459 1457 1456 1455 1455 1454 1454 1453 1452 1452 1452 1452 1451 1451 1452 1452 1452
1472 1475 1475 1471 1468 1472 1473 1472 1472 1476 1479 1475 1469 1464 1459 1458 1459 1460 1461 1461 1461 1461 1461 1460 1460 1459 1458 1457 1455 1454 1453 1452 1451 1451 1450 1449 1449 1449 1449 1448 1448 1448 1448 1448
1473 1475 1473 1471 1468 1467 1467 1468 1469 1472 1469 1470 1463 1461 1457 1457 1458 1458 1459 1459 1459 1459 1459 1458 1457 1456 1455 1454 1453 1452 1451 1450 1449 1448 1447 1446 1446 1446 1445 1445 1445 1445 1444 1445
1473 1475 1474 1471 1466 1466 1466 1463 1464 1465 1465 1464 1462 1460 1455 1455 1456 1456 1457 1457 1457 1457 1456 1456 1455 1454 1452 1451 1450 1449 1448 1447 1446 1445 1444 1443 1443 1442 1442 1441 1441 1441 1441 1441
1473 1475 1474 1469 1466 1465 1465 1458 1459 1459 1457 1459 1459 1456 1454 1454 1454 1454 1454 1454 1454 1454 1454 1453 1452 1450 1449 1448 1447 1445 1444 1443 1443 1442 1441 1440 1440 1439 1438 1438 1438 1437 1437 1437
1472 1473 1473 1472 1470 1470 1454 1450 1450 1453 1453 1453 1453 1452 1452 1453 1452 1451 1451 1452 1451 1451 1451 1449 1448 1447 1446 1445 1443 1442 1441 1440 1439 1438 1437 1437 1436 1435 1435 1434 1434 1433 1433 1433
1469 1472 1471 1471 1468 1457 1451 1449 1450 1453 1453 1450 1450 1450 1450 1450 1449 1449 1449 1449 1449 1449 1448 1446 1445 1444 1442 1441 1440 1438 1437 1437 1436 1435 1434 1434 1433 1432 1431 1430 1430 1430 1429 1428
1469 1471 1472 1468 1466 1459 1450 1449 1448 1451 1453 1448 1447 1448 1448 1449 1451 1449 1447 1446 1446 1445 1444 1443 1441 1440 1438 1437 1436 1435 1434 1433 1432 1431 1431 1430 1429 1428 1427 1426 1426 1426 1425 1424
1470 1470 1470 1467 1463 1454 1451 1449 1450 1456 1452 1448 1447 1446 1446 1447 1447 1446 1445 1443 1442 1441 1440 1439 1438 1437 1435 1434 1433 1432 1430 1429 1428 1428 1427 1426 1426 1425 1424 1423 1422 1421 1421 1420
1463 1464 1464 1462 1461 1456 1450 1450 1452 1451 1448 1447 1446 1445 1445 1444 1443 1442 1442 1441 1440 1438 1437 1436 1435 1434 1433 1431 1430 1428 1427 1426 1425 1425 1424 1423 1422 1421 1420 1419 1418 1417 1417 1416
1456 1456 1454 1454 1453 1448 1447 1447 1447 1447 1446 1445 1445 1444 1443 1442 1441 1441 1439 1438 1437 1436 1435 1434 1433 1431 1430 1429 1428 1426 1424 1424 1423 1421 1420 1419 1418 1417 1416 1415 1414 1413 1413 1412
1452 1451 1452 1451 1447 1445 1445 1445 1445 1445 1445 1444 1443 1442 1441 1441 1440 1439 1438 1437 1435 1434 1433 1432 1431 1429 1427 1426 1425 1424 1422 1421 1420 1418 1417 1416 1415 1414 1413 1412 1411 1410 1409 1409
1448 1450 1450 1449 1446 1444 1443 1443 1443 1443 1442 1442 1441 1441 1440 1439 1438 1437 1436 1435 1434 1433 1431 1430 1429 1427 1425 1424 1422 1421 1419 1418 1417 1416 1415 1413 1412 1411 1410 1409 1408 1407 1406 1406
1445 1446 1447 1444 1443 1443 1442 1441 1441 1440 1440 1439 1439 1438 1438 1437 1436 1435 1434 1433 1432 1431 1429 1428 1427 1425 1423 1421 1419 1418 1417 1415 1414 1413 1412 1411 1410 1409 1408 1406 1405 1404 1404 1403